Location: Shenandoah County Park
(38.9356°N, 78.4524°W)
Time: 14:24:13
(UTC-05:00)

Vanguard 2 Rocket - Pass Details

Date: 08 December 2023
Orbit: 555 x 3309 km, 32.9° (Epoch: 03 March)

Event Time Altitude Azimuth Distance (km) Brightness Sun altitude
Rises 18:08:30 0° 278° (W) 6,984 12.6 -14.6°
Reaches altitude 10° 18:13:02 10° 275° (W) 6,129 12.2 -15.4°
Maximum altitude 18:32:35 59° 203° (SSW) 3,493 9.9 -19.1°
Drops below altitude 10° 18:48:35 10° 129° (SE) 5,118 10.3 -22.1°
Enters shadow 18:50:29 - 126° (SE) 5,502 10.5 -22.5°
Sets 18:51:59 0° 125° (SE) 5,821 - -22.8°
